This demonstration page uses our WeatherBlox Daily Observations layout. Learn more.

Left ArrowRight Arrow

Hourly Observations for January 24, 2017

Temp ( °F °C ) Dew Point ( °F °C ) Humidity (%) Winds ( mph kmh ) Pressure ( in mb ) Visibility ( mi km ) Precip ( " mm )
12:53 am 00:53 Cloudy 42 5.6 40 4.4 92 92 W 5 7 29.93 1014 10 16 0.01 0.25
1:33 am 01:33 Cloudy with Light Rain 41 5 40 4.4 96 96 NW 5 7 29.94 1014 10 16 0.00 0.03
1:53 am 01:53 Cloudy 42 5.6 40 4.4 92 92 NW 6 9 29.95 1014 10 16 0.00 0.03
2:53 am 02:53 Cloudy 42 5.6 39 3.9 89 89 NNW 6 9 29.97 1015 10 16 0.00 0.00
3:16 am 03:16 Cloudy 43 6 39 4 87 87 NW 3 6 29.97 1015 10 16 0.00 0.00
3:53 am 03:53 Cloudy 42 5.6 39 3.9 89 89 NNW 3 6 29.99 1016 10 16 0.00 0.03
4:53 am 04:53 Mostly Cloudy 40 4.4 39 3.9 97 97 NNW 3 6 30.01 1016 10 16 0.00 0.00
5:53 am 05:53 Clear 39 3.9 38 3.3 96 96 Calm 30.02 1017 10 16 0.00 0.00
6:12 am 06:12 Clear with Mist and Fog 37 3 37 3 100 100 Calm 30.03 1017 3 4 0.00 0.00
6:33 am 06:33 Clear with Patchy Fog 36 2.2 36 2.2 100 100 Calm 30.03 1017 10 16 0.00 0.00
6:53 am 06:53 Clear with Patchy Fog 36 2.2 35 1.7 97 97 Calm 30.05 1018 10 16 0.00 0.00
6:59 am 06:59 Mostly Clear with Patchy Fog 36 2.2 35 1.7 97 97 NNE 3 6 30.06 1018 10 16 0.00 0.00
7:06 am 07:06 Mostly Cloudy with Fog 36 2 36 2 100 100 N 3 6 30.06 1018 1 1 0.00 0.00
7:14 am 07:14 Clear with Patchy Fog 36 2 36 2 100 100 NNE 5 7 30.06 1018 10 16 0.00 0.00
7:53 am 07:53 Sunny with Patchy Fog 36 2.2 35 1.7 97 97 Calm 30.07 1018 10 16 0.00 0.00
8:13 am 08:13 Partly Cloudy with Patchy Fog 35 1.7 35 1.7 100 100 Calm 30.06 1018 2 2 0.00 0.00
8:20 am 08:20 Partly Cloudy with Patchy Fog 36 2 36 2 100 100 NNE 3 6 30.06 1018 1 2 0.00 0.00
8:27 am 08:27 Sunny with Patchy Fog 36 2.2 36 2.2 100 100 N 3 6 30.09 1019 10 16 0.00 0.00
8:53 am 08:53 Sunny with Patchy Fog 41 5 37 2.8 86 86 N 3 6 30.09 1019 10 16 0.00 0.00
9:53 am 09:53 Sunny 44 6.7 38 3.3 79 79 N 5 7 30.11 1020 10 16 0.00 0.00
10:53 am 10:53 Sunny 47 8.3 37 2.8 69 69 VRB 5 7 30.12 1020 10 16 0.00 0.00
11:53 am 11:53 Sunny 50 10 35 1.7 57 57 NNE 5 7 30.10 1019 10 16 0.00 0.00
12:53 pm 12:53 Sunny 52 11.1 35 1.7 53 53 N 8 13 30.08 1019 10 16 0.00 0.00
1:53 pm 13:53 Sunny 53 11.7 35 1.7 51 51 NW 8 13 30.06 1018 10 16 0.00 0.00
2:53 pm 14:53 Sunny 54 12.2 34 1.1 47 47 N 8 13 30.07 1018 10 16 0.00 0.00
3:53 pm 15:53 Sunny 54 12.2 36 2.2 51 51 NW 5 7 30.09 1019 10 16 0.00 0.00
4:53 pm 16:53 Sunny 53 11.7 33 0.6 47 47 NW 3 6 30.11 1020 10 16 0.00 0.00
5:53 pm 17:53 Clear 45 7.2 36 2.2 71 71 Calm 30.12 1020 10 16 0.00 0.00
6:53 pm 18:53 Clear 46 7.8 35 1.7 66 66 NW 6 9 30.13 1020 10 16 0.00 0.00
7:53 pm 19:53 Clear 42 5.6 36 2.2 79 79 NNE 7 11 30.15 1021 10 16 0.00 0.00
8:53 pm 20:53 Clear 41 5 35 1.7 79 79 N 6 9 30.17 1022 10 16 0.00 0.00
9:53 pm 21:53 Clear 40 4.4 36 2.2 86 86 NNW 6 9 30.19 1022 10 16 0.00 0.00
10:53 pm 22:53 Clear 41 5 36 2.2 82 82 WNW 5 7 30.20 1023 10 16 0.00 0.00
11:53 pm 23:53 Clear 39 3.9 37 2.8 93 93 NNE 3 6 30.19 1022 10 16 0.00 0.00

Powered by AerisWeather